{"data":{"norad_id":54699,"intl_designator":"2022-169A","name":"SHIYAN-20A (SY-20A)","alt_names":[],"object_type":"PAYLOAD","status":"ACTIVE","operator":null,"country":"PRC","launch_date":"2022-12-12","launch_site_code":"JSC","launch_vehicle":null,"mission":null,"orbit_class":"UNKNOWN","rcs_meters":null,"size_class":null,"mass_kg":null,"dimensions":null,"purposes":[],"wikipedia_slug":null,"has_3d_model":false,"image_url":null,"decayed_at":null,"tle_current":{"epoch":"2026-09-21T23:03:51.759936Z","epoch_age_seconds":36103,"freshness":"FRESH","line1":"1 54699U 22169A   26264.96101574 -.00000041  00000+0  37358-4 0  9991","line2":"2 54699  59.9953 280.6064 0007144   3.8737 356.2352 14.29578949197196","mean_motion":14.29578949,"eccentricity":0.0007144,"inclination_deg":59.9953,"raan_deg":280.6064,"arg_perigee_deg":3.8737,"mean_anomaly_deg":356.2352,"bstar":3.7358e-5,"rev_number":19719,"period_min":100.72895946092,"perigee_km":788.01541549711,"apogee_km":798.26173403834,"semimajor_km":7171.2755747677,"source":"CELESTRAK","updated_at":"2026-09-22T09:00:25.187562Z"}}}